Carbondale, IL

9:32 AM CDT on March 26, 2017 (GMT -0500)
Southern Illinois

Weather History for KMDH - December, 2011

Change the Weather History Date:

Saturday, December 17, 2011

  Actual Average Record
Temperature  
Mean Temperature 35 °F -  
Max Temperature 46 °F 43 °F 68 °F (1924)
Min Temperature 24 °F 23 °F -9 °F (1989)
Degree Days  
Heating Degree Days 30    
Moisture  
Dew Point 27 °F    
Average Humidity 74    
Maximum Humidity 92    
Minimum Humidity 52    
Precipitation  
Precipitation 0.00 in - - ()
Sea Level Pressure  
Sea Level Pressure 30.37 in    
Wind  
Wind Speed 3 mph (SW)    
Max Wind Speed 10 mph    
Max Gust Speed -    
Visibility 9 miles    
Events      
Averages and records for this station are not official NWS values.
T = Trace of Precipitation, MM = Missing Value Source: NWS Daily Summary

Daily Weather History Graph

Daily Weather History Graph

Search for Another Location

Airport or City:

Trip Planner

Search our weather history database for the weather conditions in past years. The results will help you decide how hot, cold, wet, or windy it might be!

Date:

Astronomy

Dec. 17, 2011 Rise Set
Actual Time 7:06 AM CST 4:39 PM CST
Civil Twilight 6:36 AM CST 5:09 PM CST
Nautical Twilight 6:03 AM CST 5:42 PM CST
Astronomical Twilight 5:32 AM CST 6:14 PM CST
Moon No Moon Rise 11:28 AM CST (12/17)
Length of Visible Light 10h 32m
Length of Day
9h 33m
Waning Gibbous, 53% of the Moon is Illuminated
Dec 17
Waning Gibbous
Dec 17
Last Quarter
Dec 24
New
Jan 1
First Quarter
Jan 9
Full

Hourly Weather History & Observations

Time (CST) Temp. Windchill Dew Point Humidity Pressure Visibility Wind Dir Wind Speed Gust Speed Precip Events Conditions
12:52 AM 27.0 °F - 25.0 °F 92% 30.40 in 6.0 mi Calm Calm - N/A   Clear
1:52 AM 25.0 °F - 23.0 °F 92% 30.40 in 8.0 mi Calm Calm - N/A   Clear
2:52 AM 25.0 °F - 23.0 °F 92% 30.41 in 6.0 mi Calm Calm - N/A   Clear
3:52 AM 26.1 °F - 23.0 °F 88% 30.42 in 6.0 mi Calm Calm - N/A   Clear
4:52 AM 25.0 °F - 21.9 °F 88% 30.41 in 7.0 mi Calm Calm - N/A   Clear
5:52 AM 24.1 °F 19.7 °F 21.0 °F 88% 30.43 in 7.0 mi SW 3.5 mph - N/A   Clear
6:52 AM 24.1 °F 19.7 °F 21.9 °F 91% 30.41 in 6.0 mi SSW 3.5 mph - N/A   Clear
7:52 AM 26.1 °F - 24.1 °F 92% 30.41 in 5.0 mi Calm Calm - N/A   Clear
8:52 AM 30.0 °F 23.2 °F 28.0 °F 92% 30.41 in 7.0 mi South 6.9 mph - N/A   Clear
9:52 AM 36.0 °F 28.5 °F 28.0 °F 73% 30.40 in 10.0 mi SW 10.4 mph - N/A   Clear
10:52 AM 39.0 °F 32.3 °F 28.9 °F 67% 30.38 in 10.0 mi South 10.4 mph - N/A   Clear
11:52 AM 41.0 °F 34.7 °F 28.0 °F 60% 30.35 in 10.0 mi SW 10.4 mph - N/A   Clear
12:52 PM 44.1 °F 38.6 °F 28.9 °F 55% 30.31 in 10.0 mi SW 10.4 mph - N/A   Clear
1:52 PM 44.1 °F 39.0 °F 30.0 °F 58% 30.31 in 10.0 mi WSW 9.2 mph - N/A   Clear
2:52 PM 46.9 °F - 30.0 °F 52% 30.31 in 10.0 mi West 9.2 mph - N/A   Clear
3:52 PM 46.9 °F - 32.0 °F 56% 30.31 in 10.0 mi West 3.5 mph - N/A   Clear
4:52 PM 45.0 °F 41.8 °F 28.0 °F 52% 30.32 in 10.0 mi West 5.8 mph - N/A   Clear
5:52 PM 43.0 °F 40.3 °F 27.0 °F 53% 30.32 in 10.0 mi West 4.6 mph - N/A   Clear
6:52 PM 43.0 °F 39.5 °F 28.0 °F 56% 30.33 in 10.0 mi West 5.8 mph - N/A   Clear
7:52 PM 39.9 °F 36.7 °F 27.0 °F 60% 30.35 in 10.0 mi WSW 4.6 mph - N/A   Clear
8:52 PM 36.0 °F - 28.0 °F 73% 30.35 in 10.0 mi Calm Calm - N/A   Clear
9:52 PM 33.1 °F 30.0 °F 28.9 °F 85% 30.35 in 10.0 mi WSW 3.5 mph - N/A   Clear
10:52 PM 30.0 °F - 27.0 °F 88% 30.34 in 10.0 mi Calm Calm - N/A   Clear
11:52 PM 32.0 °F 27.5 °F 27.0 °F 82% 30.34 in 10.0 mi SSW 4.6 mph - N/A   Clear